Location: Unspecified
(41.5000°N, 0.0000°E)
Time: 18:58:07
(UTC+00:00)

A-11 Canister half - Pass Details

Date: 30 June 2019
Orbit: 1526 x 1683 km, 47.3° (Epoch: 19 August)

Event Time Altitude Azimuth Distance (km) Brightness Sun altitude
Exits shadow 00:02:06 20° 127° (SE) 3,049 10.2 -25.3°
Maximum altitude 00:02:11 20° 127° (SE) 3,049 10.2 -25.3°
Drops below altitude 10° 00:08:32 10° 84° (E) 3,756 11.1 -25.3°
Sets 00:12:35 0° 69° (ENE) 4,721 11.9 -25.3°
